Regional Weather Roundup
Issued by NWS

Home | Current Version | Previous Version | Graphics & Text | Print | Product List | Glossary On
Versions: 1 2 3 4 5 6 7 8 9 10 11 12 13 14 15 16 17 18 19 20 21 22 23 24 25 26 27 28 29 30 31 32 33 34 35 36 37 38 39 40 41 42 43 44 45 46 47 48 49 50
000
ASUS43 KLSX 280159
RWRMO

WEATHER SUMMARY FOR MISSOURI
NATIONAL WEATHER SERVICE SPRINGFIELD MO
800 PM CST FRI FEB 27 2015

NOTE: "FAIR" INDICATES FEW OR NO CLOUDS BELOW 12,000 FEET WITH NO
       SIGNIFICANT WEATHER AND/OR OBSTRUCTIONS TO VISIBILITY.
       CURRENT SKY AND/OR WEATHER CONDITIONS ARE NOT AVAILABLE FOR
       CHILLICOTHE AND FARMINGTON.

MOZ001>031-035>038-043-044-053-054-280300-
...NORTHERN AND WESTERN MISSOURI...

CITY           SKY/WX    TMP DP  RH WIND       PRES   REMARKS
KANSAS CTY INT CLOUDY    16   2  54 E6        30.55S WCI   7
KANSAS C DTWN  MOCLDY    18   4  54 E8        30.57S WCI   8
LEE`S SUMMIT   CLOUDY    18   2  49 E7        30.55S WCI   9
ST JOSEPH      MOCLDY    18   5  57 S8        30.57S WCI   8
CHILLICOTHE      N/A     15   4  61 CALM      30.61S
KIRKSVILLE     PTCLDY    12   2  64 E8        30.60R WCI   0

$$
MOZ066>068-077>081-088>096-101>105-280300-
...SOUTHWEST MISSOURI...

CITY           SKY/WX    TMP DP  RH WIND       PRES   REMARKS
SPRINGFIELD    CLOUDY    20  10  65 S9        30.50R WCI   9
JOPLIN         LGT SNOW  19  13  77 SE3       30.53S

$$
MOZ032>034-039>042-045>050-055>058-069>072-280300-
...CENTRAL MISSOURI...

CITY           SKY/WX    TMP DP  RH WIND       PRES   REMARKS
COLUMBIA       CLOUDY    15   3  59 NE7       30.59R WCI   5
JEFFERSON CITY CLOUDY    18   2  49 NE12      30.61S WCI   5
ROLLA          CLOUDY    20   1  43 E9        30.53S WCI   9
SEDALIA        CLOUDY    20   4  50 E7        30.58S WCI  11
OSAGE BEACH    CLOUDY    19   1  45 E3        30.56S

$$
MOZ051-052-059>065-280300-
...EAST CENTRAL MISSOURI...

CITY           SKY/WX    TMP DP  RH WIND       PRES   REMARKS
ST LOUIS INTL  MOCLDY    16   0  49 E7        30.66R WCI   6
SPIRIT OF STL  CLOUDY    16   0  49 NE8       30.64S WCI   5
ST CHARLES     PTCLDY    13   0  56 NE5       30.67R WCI   5

$$
MOZ072>076-082>087-097>100-106>115-280300-
...SOUTH CENTRAL AND SOUTHEAST MISSOURI...

CITY           SKY/WX    TMP DP  RH WIND       PRES   REMARKS
CAPE GIRARDEAU CLOUDY    23  11  60 NE8       30.64R WCI  14
FARMINGTON     CLOUDY    18   7  62 E7        30.61S WCI   8
POPLAR BLUFF   CLOUDY    22   8  55 E6        30.62S WCI  14
WEST PLAINS    CLOUDY    21   3  45 E6        30.51F WCI  13

$$



USA.gov is the U.S. government's official web portal to all federal, state and local government web resources and services.